Theta_e
306 305 304 304 303 303 303 303 303 303 304 305 306 306 306 305 305 304 303 302 302 302 301 301 301 301 301 301 301 300 300 300 300 301 300 301 301 301 301 301 301 301
306 305 304 304 303 303 303 303 303 303 304 305 306 306 306 305 305 304 303 303 302 302 301 301 301 301 301 301 301 300 300 300 300 301 300 300 300 300 300 300 301 301
306 305 304 304 304 304 303 303 303 303 304 305 306 306 306 306 305 304 303 303 303 302 302 301 301 301 301 301 301 300 300 300 300 300 300 300 300 300 300 300 300 301
305 305 304 304 304 304 304 303 303 303 304 305 306 306 306 306 305 304 303 303 303 302 302 301 301 301 301 300 300 300 299 299 299 299 299 299 299 299 299 300 300 300
305 305 304 304 304 304 304 303 303 303 304 305 306 306 306 306 305 304 303 303 303 302 301 301 300 300 300 300 299 299 299 299 299 299 299 299 299 299 299 299 299 299
304 304 304 305 304 304 304 303 303 304 304 305 306 306 306 306 305 303 303 303 303 302 301 301 300 300 300 300 299 299 298 298 298 298 298 298 298 298 298 298 298 299
304 304 304 305 304 304 304 303 303 304 304 305 306 306 306 305 304 303 303 303 302 302 302 301 300 300 300 299 299 299 298 298 298 297 298 298 298 298 297 297 297 297
305 305 304 304 304 303 303 303 304 304 305 306 305 305 305 304 303 303 302 302 302 302 302 301 300 300 299 299 299 298 298 297 297 297 297 297 297 297 297 297 297 296
305 305 304 304 304 304 304 303 304 304 305 305 305 304 304 303 303 302 302 302 302 302 301 301 301 300 299 299 298 298 297 297 297 296 296 296 296 297 297 296 296 295
304 304 304 304 304 304 304 304 305 305 304 304 304 303 303 302 302 302 302 302 301 302 301 301 301 299 299 298 298 298 297 297 297 296 296 296 296 297 296 296 296 295
304 304 304 304 304 304 304 304 305 304 304 304 303 303 303 302 302 302 302 302 301 302 301 301 300 299 298 298 297 297 296 296 296 295 296 296 296 296 296 295 295 295
303 303 303 304 304 304 304 305 305 304 304 304 303 303 303 302 302 302 301 301 302 301 301 300 299 298 297 297 296 296 295 295 295 294 295 295 295 295 294 294 294 294
303 303 304 304 304 305 304 304 304 304 304 304 303 303 303 302 301 301 301 301 301 301 300 299 299 298 297 296 295 295 294 294 294 293 293 293 293 293 293 293 293 293
303 303 303 304 304 304 304 304 303 303 303 303 303 302 302 302 301 301 301 301 300 300 300 299 297 296 296 295 294 294 293 293 292 292 292 292 292 292 292 292 292 292
303 303 303 303 303 303 303 303 303 303 303 302 302 302 301 302 301 301 301 300 300 299 298 297 296 295 295 294 294 293 292 292 292 291 291 290 290 290 290 290 290 290
303 303 303 303 303 302 303 302 302 302 302 301 301 301 301 301 300 300 299 299 298 297 296 296 295 295 295 294 294 293 292 292 291 290 290 289 289 289 289 289 289 289
302 302 302 302 302 302 302 301 301 301 300 300 300 300 300 299 299 298 298 298 297 297 296 295 295 295 295 294 294 293 292 291 290 290 289 288 288 288 288 288 288 288
301 301 301 301 301 301 300 300 300 300 300 299 299 299 299 298 298 298 297 297 296 296 295 294 294 294 294 294 293 292 291 291 290 289 288 287 287 287 287 287 286 286
301 300 300 300 300 300 300 299 299 299 299 299 299 299 298 297 297 297 296 296 295 294 294 294 293 294 293 293 292 291 291 290 289 288 288 287 287 286 286 286 285 285
300 300 300 300 300 300 299 299 299 299 299 299 298 297 296 296 296 296 295 295 294 294 293 293 293 293 292 292 292 291 290 289 288 288 287 287 286 286 286 285 285 284
300 300 300 300 299 299 298 298 298 298 298 297 296 296 296 296 295 295 294 294 293 293 292 292 292 292 292 291 291 290 289 289 288 287 286 286 285 285 285 284 284 284
299 299 299 299 298 297 297 297 297 297 296 296 295 295 295 294 294 294 293 292 292 292 291 291 291 291 291 291 290 289 289 288 288 287 286 285 284 284 284 284 284 283
298 298 297 297 296 296 296 296 296 296 295 295 294 293 293 293 293 292 292 292 291 291 290 290 290 290 290 290 289 289 288 288 287 287 285 284 283 283 283 283 283 283
297 297 297 296 296 296 296 296 295 295 295 294 293 293 293 293 292 291 291 291 290 290 290 290 289 289 289 289 288 288 288 288 287 287 285 284 283 282 282 282 282 281
296 296 296 296 296 296 296 296 295 295 294 293 293 292 292 292 291 290 290 290 290 289 289 289 289 288 288 288 288 287 287 287 287 286 285 283 282 281 281 280 280 280
296 296 296 296 296 296 296 295 295 294 293 293 292 292 291 291 290 290 289 289 289 288 288 288 288 287 287 287 287 287 287 287 287 286 284 283 281 281 280 279 279 279
Wind_Speed
39 38 38 38 37 37 35 34 33 32 32 32 31 31 29 28 27 27 27 26 26 25 25 24 23 22 22 21 22 23 23 23 23 23 23 24 24 24 24 25 24 24
40 39 39 38 38 37 36 35 34 33 33 32 32 31 29 28 28 27 27 27 27 27 26 26 26 25 24 24 24 25 25 26 25 25 24 24 24 24 24 23 24 24
40 40 39 39 39 39 38 36 35 34 33 33 32 31 30 29 29 28 27 27 28 28 28 28 28 27 27 26 26 26 26 26 26 25 24 24 23 23 23 22 23 23
40 40 40 40 40 39 38 36 35 35 34 33 33 32 31 30 30 29 29 29 29 30 30 30 29 28 27 26 26 26 26 26 26 25 24 24 24 23 23 22 23 23
39 39 39 40 40 38 37 36 36 36 35 34 34 33 33 32 32 32 31 31 30 30 31 30 30 29 28 27 27 27 27 27 26 26 25 25 25 24 24 24 24 25
36 37 39 39 40 38 37 37 37 37 36 36 36 35 35 34 34 33 33 32 31 31 31 31 31 30 29 29 28 28 28 28 28 27 27 27 27 26 25 25 26 26
36 37 38 39 39 38 38 39 38 38 38 38 37 37 36 35 35 34 33 33 32 32 32 32 32 32 31 31 31 31 30 30 30 29 29 29 28 27 27 27 27 27
38 38 38 38 38 39 39 39 40 40 40 39 38 37 36 35 35 34 34 34 33 33 33 33 33 33 33 33 33 33 33 32 32 31 31 31 30 30 30 29 28 28
37 38 37 37 38 39 40 40 41 41 40 39 38 37 36 36 35 35 34 34 33 34 34 34 35 35 35 36 36 36 36 35 35 34 34 34 34 33 33 31 31 31
36 36 36 37 38 38 39 40 40 39 38 38 37 36 35 35 35 35 35 34 35 35 35 36 37 37 37 38 38 38 38 38 37 36 36 36 36 36 35 35 34 33
34 35 35 37 37 38 38 38 38 38 37 36 36 35 36 36 36 35 35 35 36 37 37 38 38 38 38 39 39 39 38 38 38 38 38 38 38 37 37 36 36 36
34 34 34 35 36 37 37 36 36 36 36 36 36 36 37 36 36 35 35 36 37 37 37 37 37 37 38 39 39 39 38 38 38 38 38 38 38 38 37 37 37 36
33 34 34 35 36 36 36 35 35 35 35 35 35 35 35 35 35 34 35 35 36 37 37 37 37 38 39 39 39 39 39 39 38 38 38 38 38 38 37 37 37 36
31 32 33 34 34 34 34 34 34 34 34 34 34 34 34 35 35 35 35 36 37 37 37 37 37 38 39 39 39 39 39 39 39 38 38 37 37 37 37 37 37 37
31 31 32 32 32 32 33 33 34 34 34 34 34 35 35 35 35 35 36 36 37 37 37 37 37 39 40 40 40 39 39 39 39 38 37 37 36 36 36 37 37 37
31 31 32 32 32 33 33 34 33 33 33 34 34 35 35 34 34 34 35 36 36 36 36 37 38 39 40 40 40 41 40 39 39 38 38 37 37 36 37 38 38 38
30 30 30 31 32 32 32 32 31 31 31 32 33 33 33 32 32 33 35 35 35 36 36 38 39 40 40 40 41 41 40 39 39 38 38 38 37 37 38 38 39 38
27 27 28 29 29 29 29 28 28 28 30 31 32 32 32 31 32 34 35 35 35 36 36 37 38 39 39 40 40 41 40 40 39 38 37 38 38 38 38 38 38 37
25 26 27 28 28 28 27 27 27 29 31 32 33 32 31 31 33 34 34 35 35 35 36 37 37 38 38 39 39 39 40 39 39 38 38 38 38 38 38 38 37 37
25 26 28 28 27 27 26 27 29 31 32 32 32 30 30 32 33 33 34 34 35 35 35 35 36 37 37 37 38 38 39 39 39 38 38 37 38 38 38 38 38 37
27 28 28 28 27 26 27 28 30 32 32 31 30 30 31 32 32 33 33 33 33 33 34 34 35 36 36 36 37 37 37 37 37 37 37 36 36 37 38 38 38 38
28 28 28 27 26 25 26 29 30 31 30 29 28 28 29 30 30 31 31 31 31 31 32 34 34 33 34 35 35 35 35 35 35 35 35 35 35 35 36 37 38 38
25 25 25 25 23 24 26 28 28 28 27 26 26 26 28 29 30 30 29 29 30 30 31 33 33 31 32 33 33 34 34 33 33 33 34 34 34 34 35 36 37 37
20 22 22 22 22 24 26 27 26 25 25 25 25 26 27 28 28 28 28 29 29 30 31 32 31 30 31 32 32 33 33 33 32 32 32 32 31 31 32 33 34 34
17 19 20 22 23 24 25 25 24 24 23 23 24 25 26 26 25 26 27 28 28 29 30 30 30 30 29 30 31 31 32 33 32 30 29 29 29 29 29 30 31 31
13 15 19 21 22 22 22 22 22 22 21 21 23 24 24 24 24 25 26 27 27 28 28 29 29 29 28 28 29 30 31 32 32 31 30 29 29 30 29 29 30 31
Wind_Direction
224 225 226 228 230 232 233 233 233 234 235 237 238 241 245 248 250 249 247 245 243 242 241 240 240 239 236 234 232 231 230 230 231 228 226 226 225 225 223 221 220 218
225 226 227 228 230 232 233 235 235 236 238 241 243 245 246 249 251 251 250 248 245 244 242 240 240 239 237 235 232 231 229 228 228 227 226 226 225 224 224 222 220 218
226 226 226 228 230 232 234 235 236 238 240 242 244 245 246 248 251 252 252 249 246 245 243 241 240 238 237 236 234 233 232 230 230 228 227 227 227 226 224 222 220 218
226 227 228 230 232 234 235 234 235 238 239 241 243 244 246 248 250 251 251 249 246 245 244 242 240 238 237 236 235 235 234 234 233 230 228 227 227 226 224 221 220 219
228 228 229 231 233 234 234 234 236 238 239 241 244 244 245 246 248 248 249 248 246 244 243 242 240 238 237 236 236 235 235 234 233 231 229 227 226 225 223 221 219 219
229 230 230 232 233 232 233 235 237 239 240 243 244 244 244 245 246 246 247 247 245 244 242 241 240 238 237 236 235 235 235 233 232 230 228 227 226 223 222 221 219 218
229 231 231 231 232 232 233 235 237 239 242 244 244 243 243 244 244 245 246 246 244 243 242 241 240 239 237 236 235 235 234 233 232 229 228 227 225 222 220 219 219 218
230 231 231 231 231 231 233 234 237 239 241 242 242 242 243 244 245 245 245 244 243 243 242 241 241 240 238 236 235 234 232 231 230 228 227 225 223 223 221 218 217 216
231 230 230 230 230 231 232 234 237 239 240 240 241 243 244 244 245 245 244 243 243 243 242 241 241 240 238 236 235 234 232 231 230 227 226 225 224 223 221 218 216 215
231 230 229 230 230 231 233 235 236 238 238 239 241 242 243 244 244 244 243 242 242 242 242 242 241 239 238 237 236 235 233 232 231 229 227 227 226 225 223 220 217 216
231 230 229 230 230 232 234 235 237 237 239 240 240 241 243 244 244 242 241 241 241 242 242 242 242 240 238 238 237 236 235 233 232 231 230 229 228 228 226 223 221 219
230 229 230 231 232 234 236 237 239 239 240 241 241 242 243 243 242 241 241 241 242 244 243 243 243 241 240 240 239 237 235 234 234 233 232 231 230 229 228 227 225 223
230 231 232 234 236 238 239 239 240 240 241 242 243 243 243 242 241 241 242 243 244 244 244 244 243 242 241 240 239 237 235 234 233 233 233 233 232 231 230 229 228 226
235 236 236 238 239 239 240 240 240 241 242 242 242 242 242 242 242 242 243 244 244 244 244 243 241 240 240 239 237 236 235 234 233 233 233 232 232 232 231 231 230 229
238 238 238 239 239 238 239 240 240 241 241 241 241 241 242 242 242 242 242 242 242 241 241 240 238 238 239 238 237 235 234 234 233 233 233 232 232 232 232 232 232 230
236 236 236 237 237 238 239 239 239 240 240 240 241 241 242 242 241 241 241 241 240 240 239 238 238 239 239 239 238 237 235 234 232 231 232 231 230 231 231 231 231 231
234 234 235 236 236 238 238 239 239 239 239 241 241 242 242 242 240 241 241 241 241 240 239 238 239 239 240 240 239 238 236 233 232 231 230 230 229 229 230 230 230 230
234 234 235 237 237 238 238 239 239 239 241 241 242 242 242 241 241 242 242 242 242 241 240 239 240 241 241 241 240 239 237 234 233 232 230 229 228 228 229 229 229 228
234 234 236 237 238 238 239 238 238 239 240 241 242 242 241 240 241 242 241 241 240 240 240 240 241 243 242 242 241 240 238 236 233 232 231 229 229 228 228 227 226 226
232 232 235 237 237 236 236 235 237 239 240 241 241 239 238 239 240 240 240 241 240 240 241 242 242 243 243 242 242 241 239 237 234 233 233 231 230 229 228 227 226 225
229 230 232 234 233 233 233 234 236 238 239 239 238 237 238 239 240 240 241 241 240 240 241 242 243 244 244 243 242 241 240 238 235 234 233 233 232 231 229 228 227 226
226 227 228 230 230 229 231 234 236 238 238 239 239 239 240 241 241 242 241 241 241 241 241 243 245 244 244 243 242 241 239 236 234 234 233 233 233 231 230 230 229 227
227 227 228 230 228 228 232 236 238 240 241 241 240 239 240 241 241 242 242 242 242 241 240 243 244 244 244 243 241 239 236 233 232 233 233 233 233 232 231 231 231 230
234 233 233 233 231 232 237 240 241 244 244 243 242 241 242 243 243 244 244 244 243 242 242 244 245 244 244 243 241 238 234 231 231 232 232 233 232 232 232 232 230 228
243 242 240 238 238 239 242 244 245 247 248 247 245 245 245 247 246 246 246 246 245 245 245 245 245 245 244 242 240 237 234 231 230 230 231 230 229 228 228 227 224 221
254 251 248 245 246 248 249 250 250 250 249 248 247 247 247 248 247 247 248 248 248 248 246 245 245 244 243 242 239 237 234 231 228 228 228 227 225 222 218 216 215 214